This demonstration page uses our WeatherBlox Daily Observations layout. Learn more.

Left ArrowRight Arrow

Hourly Observations for January 5, 2019

Temp ( °F °C ) Dew Point ( °F °C ) Humidity (%) Winds ( mph kmh ) Pressure ( in mb ) Visibility ( mi km ) Precip ( " mm )
12:51 am 00:51 Clear 33 0.6 31 -0.6 92 92 SE 7 11 30.11 1020 10 16 N/A
1:51 am 01:51 Clear 35 1.7 32 undefined 89 89 SSE 12 19 30.11 1020 10 16 N/A
2:51 am 02:51 Clear 41 5 30 -1.1 65 65 ESE 17 28 30.10 1019 10 16 N/A
3:51 am 03:51 Clear 38 3.3 29 -1.7 70 70 SE 10 17 30.11 1020 10 16 N/A
4:51 am 04:51 Clear 35 1.7 30 -1.1 82 82 SSE 10 17 30.10 1019 10 16 N/A
5:51 am 05:51 Clear 33 0.6 30 -1.1 89 89 SSE 12 19 30.13 1020 10 16 N/A
6:51 am 06:51 Clear 38 3.3 28 -2.2 68 68 ESE 13 20 30.12 1020 10 16 N/A
7:51 am 07:51 Sunny 39 3.9 27 -2.8 62 62 ESE 16 26 30.14 1021 10 16 N/A
8:51 am 08:51 Sunny 41 5 28 -2.2 60 60 ESE 12 19 30.16 1021 10 16 N/A
9:51 am 09:51 Sunny 42 5.6 31 -0.6 65 65 SSE 10 17 30.18 1022 10 16 N/A
10:51 am 10:51 Sunny 46 7.8 32 undefined 58 58 SSE 12 19 30.16 1022 10 16 N/A
11:51 am 11:51 Sunny 49 9.4 33 0.6 55 55 SE 7 11 30.13 1020 10 16 N/A
12:51 pm 12:51 Sunny 50 10 34 1.1 54 54 S 8 13 30.10 1019 10 16 N/A
1:51 pm 13:51 Sunny 52 11.1 34 1.1 50 50 SSE 9 15 30.06 1018 10 16 N/A
2:51 pm 14:51 Sunny 53 11.7 34 1.1 48 48 S 9 15 30.03 1017 10 16 N/A
3:51 pm 15:51 Sunny 55 12.8 35 1.7 47 47 S 8 13 30.03 1017 10 16 N/A
4:51 pm 16:51 Sunny 53 11.7 35 1.7 51 51 SSE 8 13 30.03 1017 10 16 N/A
5:51 pm 17:51 Mostly Cloudy 50 10 37 2.8 61 61 SE 6 9 30.03 1017 10 16 N/A
6:51 pm 18:51 Partly Cloudy 50 10 37 2.8 61 61 ESE 5 7 30.01 1016 10 16 N/A
7:51 pm 19:51 Cloudy 49 9.4 38 3.3 66 66 N N/A 30.03 1017 10 16 N/A
8:51 pm 20:51 Cloudy 49 9.4 40 4.4 71 71 N N/A 30.05 1018 10 16 N/A
9:51 pm 21:51 Cloudy 47 8.3 41 5 80 80 W 6 9 30.04 1017 10 16 N/A
10:51 pm 22:51 Cloudy with Light Rain 47 8.3 42 5.6 83 83 N N/A 30.02 1017 10 16 N/A
11:51 pm 23:51 Cloudy 46 7.8 42 5.6 86 86 SSE 7 11 29.98 1015 10 16 N/A

Powered by AerisWeather